Location: Stara Lesna
(49.1528°N, 20.2911°E)
Time: 18:50:30
(UTC+02:00)

SL-16 R/B - Pass Details

Date: 21 September 2019
Orbit: 986 x 1006 km, 99.4° (Epoch: 13 October)

Event Time Altitude Azimuth Distance (km) Brightness Sun altitude
Exits shadow 01:39:41 42° 24° (NNE) 1,385 3.5 -37.9°
Drops below altitude 10° 01:44:10 10° 352° (N) 2,782 5.4 -37.6°
Sets 01:46:43 0° 348° (NNW) 3,738 6.2 -37.4°
